Location: Kermapucano
(48.0667°N, 3.3000°W)
Time: 20:27:18
(UTC+00:00)

Meteor 2-17 Rocket - Pass Details

Date: 29 November 2020
Orbit: 936 x 956 km, 82.5° (Epoch: 27 January)

Event Time Altitude Azimuth Distance (km) Brightness Sun altitude
Rises 05:49:42 0° 203° (SSW) 3,581 7.4 -17.8°
Reaches altitude 10° 05:52:14 10° 208° (SSW) 2,641 6.6 -17.4°
Maximum altitude 05:58:07 54° 285° (WNW) 1,135 4.5 -16.4°
Drops below altitude 10° 06:04:04 10° 2° (N) 2,665 6.7 -15.5°
Sets 06:06:39 0° 7° (N) 3,615 7.4 -15.1°
